Location: Apollinopolis Magna
(24.9792°N, 32.8772°E)
Time: 04:24:31
(UTC+00:00)

NOSS 3-2 (A) - Pass Details

Date: 02 March 2021
Orbit: 780 x 1427 km, 63.4° (Epoch: 31 March)

Event Time Altitude Azimuth Distance (km) Brightness Sun altitude
Rises 17:12:46 0° 186° (S) 3,246 6.3 -19.3°
Reaches altitude 10° 17:15:17 10° 177° (S) 2,326 5.4 -19.8°
Enters shadow 17:19:18 34° 130° (SE) 1,283 3.7 -20.7°
